TimeCET,TemperatureF,Dew PointF,Humidity,Sea Level PressureIn,VisibilityMPH,Wind Direction,Wind SpeedMPH,Gust SpeedMPH,PrecipitationIn,Events,Conditions,WindDirDegrees,DateUTC
12:07 AM,35.6,33.8,93,29.89,3.1,WSW,6.7,-,N/A,Rain-Snow,Light Rain,250,2013-02-19 23:07:00
12:15 AM,33.8,33.8,100,29.89,3.1,WSW,6.7,-,N/A,Rain-Snow,Light Rain,250,2013-02-19 23:15:00
1:15 AM,33.8,33.8,100,29.89,2.5,WSW,8.9,-,N/A,,Mostly Cloudy,240,2013-02-20 00:15:00
1:45 AM,33.8,33.8,100,29.89,2.5,WSW,6.7,-,N/A,,Mostly Cloudy,240,2013-02-20 00:45:00
2:15 AM,33.8,33.8,100,29.89,2.5,SW,6.7,-,N/A,,Mostly Cloudy,230,2013-02-20 01:15:00
2:45 AM,33.8,33.8,100,29.89,2.5,SW,6.7,-,N/A,,Overcast,230,2013-02-20 01:45:00
3:15 AM,33.8,33.8,100,29.89,2.5,SW,6.7,-,N/A,,Overcast,220,2013-02-20 02:15:00
3:45 AM,33.8,33.8,100,29.89,2.5,SW,6.7,-,N/A,,Overcast,230,2013-02-20 02:45:00
4:15 AM,33.8,33.8,100,29.89,2.5,WSW,8.9,-,N/A,,Overcast,240,2013-02-20 03:15:00
4:45 AM,33.8,33.8,100,29.89,3.1,WSW,6.7,-,N/A,,Overcast,240,2013-02-20 03:45:00
5:15 AM,35.6,32.0,87,29.92,3.7,West,11.2,-,N/A,,Unknown,260,2013-02-20 04:15:00
5:45 AM,-9999,-9999,N/A,-9999,6.2,West,8.9,-,N/A,,Clear,260,2013-02-20 04:45:00
6:15 AM,33.8,32.0,93,29.92,4.3,West,8.9,-,N/A,,Unknown,270,2013-02-20 05:15:00
6:45 AM,33.8,32.0,93,29.92,4.3,West,8.9,-,N/A,,Unknown,260,2013-02-20 05:45:00
7:15 AM,33.8,30.2,87,29.92,5.0,West,11.2,-,N/A,,Unknown,270,2013-02-20 06:15:00
7:45 AM,33.8,30.2,87,29.95,6.2,West,11.2,-,N/A,,Scattered Clouds,280,2013-02-20 06:45:00
8:15 AM,33.8,30.2,87,29.95,6.2,West,11.2,-,N/A,,Mostly Cloudy,280,2013-02-20 07:15:00
8:45 AM,-9999,-9999,N/A,-9999,6.2,WNW,13.4,24.6,N/A,,Mostly Cloudy,290,2013-02-20 07:45:00
9:15 AM,35.6,32.0,87,29.95,6.2,WNW,15.7,-,N/A,,Partly Cloudy,290,2013-02-20 08:15:00
9:45 AM,37.4,30.2,75,29.95,6.2,WNW,15.7,-,N/A,,Scattered Clouds,290,2013-02-20 08:45:00
10:15 AM,37.4,28.4,70,29.98,6.2,WNW,13.4,-,N/A,,Mostly Cloudy,290,2013-02-20 09:15:00
10:45 AM,37.4,26.6,65,29.98,6.2,WNW,15.7,-,N/A,,Mostly Cloudy,290,2013-02-20 09:45:00
11:15 AM,37.4,24.8,60,29.98,6.2,WNW,15.7,-,N/A,,Mostly Cloudy,300,2013-02-20 10:15:00
11:45 AM,-9999,-9999,N/A,-9999,6.2,WNW,13.4,24.6,N/A,,Mostly Cloudy,290,2013-02-20 10:45:00
12:15 PM,41.0,24.8,53,29.98,6.2,WNW,15.7,-,N/A,,Scattered Clouds,290,2013-02-20 11:15:00
1:15 PM,42.8,19.4,39,29.98,6.2,West,13.4,-,N/A,,Scattered Clouds,280,2013-02-20 12:15:00
1:45 PM,39.2,19.4,45,29.98,6.2,WNW,15.7,-,N/A,,Scattered Clouds,290,2013-02-20 12:45:00
2:15 PM,39.2,19.4,45,29.98,6.2,WNW,15.7,-,N/A,,Mostly Cloudy,290,2013-02-20 13:15:00
2:45 PM,-9999,-9999,N/A,-9999,6.2,WNW,11.2,-,N/A,,Mostly Cloudy,290,2013-02-20 13:45:00
3:15 PM,39.2,19.4,45,29.98,6.2,WNW,13.4,-,N/A,,Mostly Cloudy,290,2013-02-20 14:15:00
3:45 PM,39.2,19.4,45,29.98,6.2,WNW,13.4,-,N/A,,Mostly Cloudy,290,2013-02-20 14:45:00
4:15 PM,37.4,21.2,52,30.01,-9999.0,West,11.2,-,N/A,,Clear,280,2013-02-20 15:15:00
4:45 PM,37.4,21.2,52,30.01,-9999.0,West,11.2,-,N/A,,Clear,280,2013-02-20 15:45:00
5:45 PM,33.8,21.2,60,30.01,-9999.0,West,8.9,-,N/A,,Clear,280,2013-02-20 16:45:00
6:15 PM,33.8,23.0,65,30.04,-9999.0,West,6.7,-,N/A,,Clear,270,2013-02-20 17:15:00
6:45 PM,32.0,23.0,69,30.04,-9999.0,West,6.7,-,N/A,,Clear,270,2013-02-20 17:45:00
7:15 PM,32.0,23.0,69,30.04,-9999.0,West,6.7,-,N/A,,Clear,270,2013-02-20 18:15:00
7:45 PM,30.2,24.8,80,30.04,-9999.0,West,6.7,-,N/A,,Clear,280,2013-02-20 18:45:00
8:15 PM,30.2,24.8,80,30.04,-9999.0,WNW,6.7,-,N/A,,Clear,290,2013-02-20 19:15:00
8:45 PM,-9999,-9999,N/A,-9999,-9999.0,WNW,6.7,-,N/A,,Clear,290,2013-02-20 19:45:00
9:15 PM,30.2,24.8,80,30.06,-9999.0,West,6.7,-,N/A,,Clear,280,2013-02-20 20:15:00
9:45 PM,30.2,24.8,80,30.06,-9999.0,West,8.9,-,N/A,,Clear,280,2013-02-20 20:45:00
10:15 PM,28.4,24.8,86,30.06,-9999.0,WNW,6.7,-,N/A,,Clear,290,2013-02-20 21:15:00
10:45 PM,28.4,24.8,86,30.06,-9999.0,WNW,6.7,-,N/A,,Clear,290,2013-02-20 21:45:00
11:15 PM,24.8,21.2,86,30.06,-9999.0,WNW,8.9,-,N/A,,Clear,290,2013-02-20 22:15:00
11:45 PM,-9999,-9999,N/A,-9999,1.3,North,-9999.0,-,N/A,,Unknown,0,2013-02-20 22:45:00